Weather in Alghero

Italy     40°33′26″N   8°19′00″E
temp.,
°C
wind,
m/s
gust,
m/s
humid.,
%
clouds,
%
prec.,
mm/h
press.,
hPa
HPBL,
m
6 march, sat
sat601:00+12ene23770 0.0 1019116
04:00+12ne22770 0.0 1019131
07:00+11ene22775 0.0 1020122
10:00+13nne236921 0.0 1022226
13:00+15wnw446711 0.0 1022262
16:00+15nnw567541 0.0 1022214
19:00+14nne458366 0.0 1022165
22:00+14se458170 0.0 1023156
7 march, sun
sun701:00+13se347764 0.0 1023217
04:00+12ene327815 0.0 1022118
07:00+12ene337823 0.0 1022101
10:00+14e1173100 0.0 1021110
13:00+14wnw227075 0.0 1020139
16:00+14wnw3380100 1.0 1018367
19:00+13ene4491100 4.2 1017153
22:00+13ne3388100 1.8 1017156
8 march, mon
mon801:00+13ne3486100 2.1 1015191
04:00+13ssw1282100 0.1 1014269
07:00+12nne2392100 1.6 1013187
10:00+12ne3494100 12.6 1014206
13:00+12ne3390100 19.3 1013301
16:00+14nne3582100 1.3 1012515
19:00+13nne6783100 1.3 1013398
22:00+12ne568391 0.0 1013264
9 march, tue
tue901:00+12ne458290 0.0 1014230
04:00+12nne468395 0.0 1013300
07:00+12nne458397 0.0 1013303
10:00+13nne347696 0.0 1014296
13:00+14nw767876 0.1 1014405
16:00+14nnw77754 0.1 1014474
19:00+13nnw557818 0.1 1015610
22:00+12nne57790 0.0 1017528
10 march, wed
wed1001:00+12nne46730 0.0 1018622
04:00+12nnw457218 0.1 1018665
07:00+12nw346012 0.2 1019747
10:00+13nne22610 0.0 1021397
13:00+13nw66660 0.0 1022851
16:00+13nnw66700 0.0 1022900
19:00+13nnw45700 0.0 1023765
22:00+12n23700 0.0 1025538